Regional Weather Roundup
Issued by NWS Bismarck, ND

Home | Current Version | Previous Version | Text Only | Print | Product List | Glossary On
Versions: 1 2 3 4 5 6 7 8 9 10 11 12 13 14 15 16 17 18 19 20 21 22 23 24 25 26 27 28 29 30 31 32 33 34 35 36 37 38 39 40 41 42 43 44 45 46 47 48 49 50
000
ASUS43 KBIS 201110
RWRBIS

NWR BROADCAST TEXT
NATIONAL WEATHER SERVICE BISMARCK ND
500 AM CST SAT JAN 20 2018

NOTE: "FAIR" INDICATES FEW OR NO CLOUDS BELOW 12,000 FEET WITH NO
SIGNIFICANT WEATHER AND/OR OBSTRUCTIONS TO VISIBILITY.


CITY           SKY/WX    TMP DP  RH WIND       PRES   REMARKS
WILLISTON      FAIR      30  23  75 SW12      29.75R
MINOT          FAIR      30  24  78 SW9       29.71S
MINOT AFB      CLOUDY    29  24  81 W6        29.69F
BISMARCK       FAIR      33  30  88 CALM      29.78S
DICKINSON      FAIR      33  30  88 W9        29.77R
GARRISON         N/A     28  25  88 W12       29.74R WCI  18
HETTINGER ARPT CLOUDY    33  31  92 W7        29.82R
JAMESTOWN      FAIR      31  26  82 W10       29.74R
CARRINGTON     FAIR      28  25  86 W5        29.75S
HAZEN            N/A     32  30  93 SW9       29.78R
LINTON           N/A     30  27  86 W7        29.81R
MANDAN         PTSUNNY   34  32  93 W9        29.78R
OAKES            N/A     25  25 100 S8        29.79R WCI  16
RUGBY          FAIR      25  23  93 SW9       29.71S WCI  15
STANLEY        FAIR      28  25  86 W12       29.73S WCI  18
TIOGA          FAIR      27  25  93 W13       29.72F WCI  16
WATFORD CITY   FAIR      27  25  93 SW8       29.76R WCI  18
$$

CITY           SKY/WX    TMP DP  RH WIND       PRES   REMARKS
GRAND FORKS    FAIR      31  26  82 W9        29.72R
GRAND FORKS AF FAIR      31  25  79 NW10      29.71R
DEVILS LAKE    FAIR      26  22  84 W8        29.72S WCI  18
FARGO          CLOUDY    24  22  91 S10       29.75R WCI  14
CANDO          FAIR      25  25 100 W9        29.73S WCI  15
CAVALIER         N/A     30  25  80 W8        29.70S
GRAFTON        FAIR      30  27  86 W9        29.73R
GWINNER          N/A     23  23 100 SW6       29.78R WCI  16
LANGDON        FAIR      21  21 100 W10       29.69S WCI  10
ROLLA          FAIR      21  21 100 SW7       29.69S WCI  13
WALHALLA       FAIR      28  28 100 W8        29.70S
$$

CITY           SKY/WX    TMP DP  RH WIND       PRES   REMARKS
ABERDEEN       CLOUDY    28  26  92 SW3       29.81S
MOBRIDGE       CLOUDY    33  30  88 CALM      29.78F
BUFFALO          N/A     35  32  88 W7        29.75S
RAPID CITY     CLOUDY    34  31  88 N10       29.81R
GLASGOW        CLEAR     20  14  77 MISG      29.78R
SIDNEY         MOCLDY    23  21  92 S5        29.79R WCI  17
WOLF POINT     PTCLDY    20  14  77 W10       29.79R WCI   9
GLENDIVE       CLOUDY    31  24  75 W12       29.81R
MILES CITY     CLOUDY    32  29  88 W8        29.84S
BAKER          CLOUDY    32  30  92 W13       29.82R
$$

CITY           SKY/WX    TMP DP  RH WIND       PRES   REMARKS
BILLINGS       MOCLDY    31  24  75 SW9       29.87R
GREAT FALLS    CLEAR     27  17  66 SW14      29.83S WCI  16
REGINA         PTCLDY    18  16  93 SW3       29.66R
ESTEVAN        PTCLDY    14  12  92 SW7       29.70R WCI   4
$$





USA.gov is the U.S. government's official web portal to all federal, state and local government web resources and services.